Year,Month,Day,Hour,Minute,Value (Times are PST for temperature in C)
2016,04,24,00,00,10.30
2016,04,24,00,01,10.40
2016,04,24,00,02,10.40
2016,04,24,00,03,10.40
2016,04,24,00,04,10.40
2016,04,24,00,05,10.40
2016,04,24,00,06,10.40
2016,04,24,00,07,10.40
2016,04,24,00,08,10.40
2016,04,24,00,09,10.40
2016,04,24,00,10,10.40
2016,04,24,00,11,10.40
2016,04,24,00,12,10.40
2016,04,24,00,13,10.40
2016,04,24,00,14,10.40
2016,04,24,00,15,10.40
2016,04,24,00,16,10.40
2016,04,24,00,17,10.40
2016,04,24,00,18,10.40
2016,04,24,00,19,10.30
2016,04,24,00,20,10.30
2016,04,24,00,21,10.30
2016,04,24,00,22,10.30
2016,04,24,00,23,10.30
2016,04,24,00,24,10.20
2016,04,24,00,25,10.20
2016,04,24,00,26,10.20
2016,04,24,00,27,10.20
2016,04,24,00,28,10.20
2016,04,24,00,29,10.20
2016,04,24,00,30,10.20
2016,04,24,00,31,10.10
2016,04,24,00,32,10.10
2016,04,24,00,33,10.10
2016,04,24,00,34,10.10
2016,04,24,00,35,10.10
2016,04,24,00,36,10.10
2016,04,24,00,37,10.10
2016,04,24,00,38,10.10
2016,04,24,00,39,10.10
2016,04,24,00,40,10.10
2016,04,24,00,41,10.10
2016,04,24,00,42,10.10
2016,04,24,00,43,10.00
2016,04,24,00,44,9.90
2016,04,24,00,45,9.90
2016,04,24,00,46,9.90
2016,04,24,00,47,9.90
2016,04,24,00,48,9.90
2016,04,24,00,49,9.90
2016,04,24,00,50,9.90
2016,04,24,00,51,9.90
2016,04,24,00,52,9.90
2016,04,24,00,53,9.90
2016,04,24,00,54,9.90
2016,04,24,00,55,9.90
2016,04,24,00,56,9.90
2016,04,24,00,57,9.90
2016,04,24,00,58,9.90
2016,04,24,00,59,9.90
2016,04,24,01,00,9.90
2016,04,24,01,01,9.90
2016,04,24,01,02,9.90
2016,04,24,01,03,9.90
2016,04,24,01,04,9.90
2016,04,24,01,05,9.90
2016,04,24,01,06,9.90
2016,04,24,01,07,9.90
2016,04,24,01,08,9.90
2016,04,24,01,09,9.90
2016,04,24,01,10,9.90
2016,04,24,01,11,9.90
2016,04,24,01,12,9.90
2016,04,24,01,13,9.90
2016,04,24,01,14,9.90
2016,04,24,01,15,9.90
2016,04,24,01,16,9.90
2016,04,24,01,17,9.90
2016,04,24,01,18,9.90
2016,04,24,01,19,9.90
2016,04,24,01,20,9.90
2016,04,24,01,21,9.90
2016,04,24,01,22,9.90
2016,04,24,01,23,9.90
2016,04,24,01,24,9.90
2016,04,24,01,25,10.00
2016,04,24,01,26,10.10
2016,04,24,01,27,10.10
2016,04,24,01,28,10.10
2016,04,24,01,29,10.10
2016,04,24,01,30,10.10
2016,04,24,01,31,10.00
2016,04,24,01,32,10.10
2016,04,24,01,33,10.10
2016,04,24,01,34,10.10
2016,04,24,01,35,10.10
2016,04,24,01,36,10.10
2016,04,24,01,37,10.10
2016,04,24,01,38,10.10
2016,04,24,01,39,10.10
2016,04,24,01,40,10.10
2016,04,24,01,41,10.10
2016,04,24,01,42,10.10
2016,04,24,01,43,10.10
2016,04,24,01,44,10.10
2016,04,24,01,45,10.10
2016,04,24,01,46,10.10
2016,04,24,01,47,10.10
2016,04,24,01,48,10.00
2016,04,24,01,49,10.00
2016,04,24,01,50,9.90
2016,04,24,01,51,10.00
2016,04,24,01,52,9.90
2016,04,24,01,53,9.90
2016,04,24,01,54,9.90
2016,04,24,01,55,9.90
2016,04,24,01,56,9.90
2016,04,24,01,57,9.90
2016,04,24,01,58,9.90
2016,04,24,01,59,9.90
2016,04,24,02,00,9.90
2016,04,24,02,01,9.90
2016,04,24,02,02,9.90
2016,04,24,02,03,9.90
2016,04,24,02,04,9.90
2016,04,24,02,05,9.90
2016,04,24,02,06,9.90
2016,04,24,02,07,9.90
2016,04,24,02,08,9.90
2016,04,24,02,09,9.90
2016,04,24,02,10,9.90
2016,04,24,02,11,9.90
2016,04,24,02,12,9.90
2016,04,24,02,13,9.90
2016,04,24,02,14,9.90
2016,04,24,02,15,9.90
2016,04,24,02,16,9.90
2016,04,24,02,17,9.90
2016,04,24,02,18,9.90
2016,04,24,02,19,9.90
2016,04,24,02,20,9.90
2016,04,24,02,21,9.90
2016,04,24,02,22,9.90
2016,04,24,02,23,9.90
2016,04,24,02,24,9.90
2016,04,24,02,25,9.90
2016,04,24,02,26,9.90
2016,04,24,02,27,9.90
2016,04,24,02,28,9.90
2016,04,24,02,29,9.90
2016,04,24,02,30,9.90
2016,04,24,02,31,9.90
2016,04,24,02,32,9.90
2016,04,24,02,33,9.90
2016,04,24,02,34,9.90
2016,04,24,02,35,9.90
2016,04,24,02,36,9.80
2016,04,24,02,37,9.90
2016,04,24,02,38,9.80
2016,04,24,02,39,9.80
2016,04,24,02,40,9.80
2016,04,24,02,41,9.80
2016,04,24,02,42,9.80
2016,04,24,02,43,9.80
2016,04,24,02,44,9.80
2016,04,24,02,45,9.80
2016,04,24,02,46,9.80
2016,04,24,02,47,9.80
2016,04,24,02,48,9.80
2016,04,24,02,49,9.80
2016,04,24,02,50,9.80
2016,04,24,02,51,9.80
2016,04,24,02,52,9.80
2016,04,24,02,53,9.80
2016,04,24,02,54,9.80
2016,04,24,02,55,9.80
2016,04,24,02,56,9.80
2016,04,24,02,57,9.80
2016,04,24,02,58,9.80
2016,04,24,02,59,9.80
2016,04,24,03,00,9.80
2016,04,24,03,01,9.80
2016,04,24,03,02,9.80
2016,04,24,03,03,9.80
2016,04,24,03,04,9.80
2016,04,24,03,05,9.80
2016,04,24,03,06,9.80
2016,04,24,03,07,9.80
2016,04,24,03,08,9.90
2016,04,24,03,09,9.90
2016,04,24,03,10,9.80
2016,04,24,03,11,9.80
2016,04,24,03,12,9.80
2016,04,24,03,13,9.80
2016,04,24,03,14,9.80
2016,04,24,03,15,9.80
2016,04,24,03,16,9.80
2016,04,24,03,17,9.80
2016,04,24,03,18,9.80
2016,04,24,03,19,9.80
2016,04,24,03,20,9.80
2016,04,24,03,21,9.80
2016,04,24,03,22,9.80
2016,04,24,03,23,9.80
2016,04,24,03,24,9.80
2016,04,24,03,25,9.80
2016,04,24,03,26,9.80
2016,04,24,03,27,9.80
2016,04,24,03,28,9.80
2016,04,24,03,29,9.80
2016,04,24,03,30,9.80
2016,04,24,03,31,9.80
2016,04,24,03,32,9.80
2016,04,24,03,33,9.80
2016,04,24,03,34,9.80
2016,04,24,03,35,9.80
2016,04,24,03,36,9.80
2016,04,24,03,37,9.80
2016,04,24,03,38,9.80
2016,04,24,03,39,9.80
2016,04,24,03,40,9.80
2016,04,24,03,41,9.80
2016,04,24,03,42,9.80
2016,04,24,03,43,9.80
2016,04,24,03,44,9.80
2016,04,24,03,45,9.80
2016,04,24,03,46,9.80
2016,04,24,03,47,9.80
2016,04,24,03,48,9.80
2016,04,24,03,49,9.80
2016,04,24,03,50,9.80
2016,04,24,03,51,9.80
2016,04,24,03,52,9.80
2016,04,24,03,53,9.70
2016,04,24,03,54,9.70
2016,04,24,03,55,9.70
2016,04,24,03,56,9.70
2016,04,24,03,57,9.70
2016,04,24,03,58,9.70
2016,04,24,03,59,9.70
2016,04,24,04,00,9.70
2016,04,24,04,01,9.70
2016,04,24,04,02,9.70
2016,04,24,04,03,9.70
2016,04,24,04,04,9.70
2016,04,24,04,05,9.70
2016,04,24,04,06,9.70
2016,04,24,04,07,9.70
2016,04,24,04,08,9.70
2016,04,24,04,09,9.70
2016,04,24,04,10,9.70
2016,04,24,04,11,9.70
2016,04,24,04,12,9.70
2016,04,24,04,13,9.70
2016,04,24,04,14,9.70
2016,04,24,04,15,9.70
2016,04,24,04,16,9.70
2016,04,24,04,17,9.70
2016,04,24,04,18,9.70
2016,04,24,04,19,9.70
2016,04,24,04,20,9.70
2016,04,24,04,21,9.70
2016,04,24,04,22,9.70
2016,04,24,04,23,9.70
2016,04,24,04,24,9.70
2016,04,24,04,25,9.70
2016,04,24,04,26,9.70
2016,04,24,04,27,9.70
2016,04,24,04,28,9.70
2016,04,24,04,29,9.70
2016,04,24,04,30,9.70
2016,04,24,04,31,9.70
2016,04,24,04,32,9.60
2016,04,24,04,33,9.60
2016,04,24,04,34,9.60
2016,04,24,04,35,9.60
2016,04,24,04,36,9.60
2016,04,24,04,37,9.60
2016,04,24,04,38,9.60
2016,04,24,04,39,9.60
2016,04,24,04,40,9.60
2016,04,24,04,41,9.60
2016,04,24,04,42,9.60
2016,04,24,04,43,9.60
2016,04,24,04,44,9.60
2016,04,24,04,45,9.50
2016,04,24,04,46,9.50
2016,04,24,04,47,9.50
2016,04,24,04,48,9.50
2016,04,24,04,49,9.50
2016,04,24,04,50,9.50
2016,04,24,04,51,9.50
2016,04,24,04,52,9.50
2016,04,24,04,53,9.50
2016,04,24,04,54,9.50
2016,04,24,04,55,9.50
2016,04,24,04,56,9.40
2016,04,24,04,57,9.40
2016,04,24,04,58,9.40
2016,04,24,04,59,9.40
2016,04,24,05,00,9.40
2016,04,24,05,01,9.40
2016,04,24,05,02,9.40
2016,04,24,05,03,9.40
2016,04,24,05,04,9.40
2016,04,24,05,05,9.30
2016,04,24,05,06,9.30
2016,04,24,05,07,9.30
2016,04,24,05,08,9.30
2016,04,24,05,09,9.30
2016,04,24,05,10,9.30
2016,04,24,05,11,9.20
2016,04,24,05,12,9.20
2016,04,24,05,13,9.20
2016,04,24,05,14,9.20
2016,04,24,05,15,9.20
2016,04,24,05,16,9.20
2016,04,24,05,17,9.20
2016,04,24,05,18,9.20
2016,04,24,05,19,9.20
2016,04,24,05,20,9.20
2016,04,24,05,21,9.20
2016,04,24,05,22,9.20
2016,04,24,05,23,9.10
2016,04,24,05,24,9.10
2016,04,24,05,25,9.10
2016,04,24,05,26,9.10
2016,04,24,05,27,9.10
2016,04,24,05,28,9.10
2016,04,24,05,29,9.10
2016,04,24,05,30,9.10
2016,04,24,05,31,9.10
2016,04,24,05,32,9.10
2016,04,24,05,33,9.10
2016,04,24,05,34,9.10
2016,04,24,05,35,9.10
2016,04,24,05,36,9.10
2016,04,24,05,37,9.00
2016,04,24,05,38,9.00
2016,04,24,05,39,9.00
2016,04,24,05,40,9.00
2016,04,24,05,41,9.00
2016,04,24,05,42,9.00
2016,04,24,05,43,9.00
2016,04,24,05,44,9.00
2016,04,24,05,45,9.00
2016,04,24,05,46,9.00
2016,04,24,05,47,9.00
2016,04,24,05,48,9.00
2016,04,24,05,49,9.00
2016,04,24,05,50,9.00
2016,04,24,05,51,9.00
2016,04,24,05,52,9.10
2016,04,24,05,53,9.00
2016,04,24,05,54,9.00
2016,04,24,05,55,9.00
2016,04,24,05,56,9.00
2016,04,24,05,57,9.00
2016,04,24,05,58,9.00
2016,04,24,05,59,9.00
2016,04,24,06,00,9.00
2016,04,24,06,01,9.00
2016,04,24,06,02,9.00
2016,04,24,06,03,9.00
2016,04,24,06,04,9.00
2016,04,24,06,05,9.00
2016,04,24,06,06,9.00
2016,04,24,06,07,9.00
2016,04,24,06,08,9.00
2016,04,24,06,09,8.90
2016,04,24,06,10,8.90
2016,04,24,06,11,8.90
2016,04,24,06,12,8.90
2016,04,24,06,13,8.90
2016,04,24,06,14,8.90
2016,04,24,06,15,8.90
2016,04,24,06,16,8.90
2016,04,24,06,17,8.90
2016,04,24,06,18,8.90
2016,04,24,06,19,8.90
2016,04,24,06,20,8.90
2016,04,24,06,21,8.90
2016,04,24,06,22,8.80
2016,04,24,06,23,8.80
2016,04,24,06,24,8.80
2016,04,24,06,25,8.80
2016,04,24,06,26,8.80
2016,04,24,06,27,8.80
2016,04,24,06,28,8.80
2016,04,24,06,29,8.80
2016,04,24,06,30,8.80
2016,04,24,06,31,8.80
2016,04,24,06,32,8.80
2016,04,24,06,33,8.80
2016,04,24,06,34,8.80
2016,04,24,06,35,8.80
2016,04,24,06,36,8.80
2016,04,24,06,37,8.80
2016,04,24,06,38,8.80
2016,04,24,06,39,8.80
2016,04,24,06,40,8.80
2016,04,24,06,41,8.80
2016,04,24,06,42,8.80
2016,04,24,06,43,8.80
2016,04,24,06,44,8.80
2016,04,24,06,45,8.80
2016,04,24,06,46,8.80
2016,04,24,06,47,8.80
2016,04,24,06,48,8.80
2016,04,24,06,49,8.80
2016,04,24,06,50,8.80
2016,04,24,06,51,8.80
2016,04,24,06,52,8.80
2016,04,24,06,53,8.80
2016,04,24,06,54,8.80
2016,04,24,06,55,8.80
2016,04,24,06,56,8.80
2016,04,24,06,57,8.80
2016,04,24,06,58,8.80
2016,04,24,06,59,8.80
2016,04,24,07,00,8.80
2016,04,24,07,01,8.80
2016,04,24,07,02,8.90
2016,04,24,07,03,8.90
2016,04,24,07,04,8.90
2016,04,24,07,05,8.90
2016,04,24,07,06,8.90
2016,04,24,07,07,8.90
2016,04,24,07,08,8.90
2016,04,24,07,09,8.90
2016,04,24,07,10,9.00
2016,04,24,07,11,8.90
2016,04,24,07,12,8.90
2016,04,24,07,13,8.90
2016,04,24,07,14,8.90
2016,04,24,07,15,8.90
2016,04,24,07,16,8.90
2016,04,24,07,17,8.90
2016,04,24,07,18,8.90
2016,04,24,07,19,8.90
2016,04,24,07,20,8.90
2016,04,24,07,21,8.90
2016,04,24,07,22,8.90
2016,04,24,07,23,9.00
2016,04,24,07,24,9.00
2016,04,24,07,25,9.00
2016,04,24,07,26,9.00
2016,04,24,07,27,9.00
2016,04,24,07,28,9.00
2016,04,24,07,29,9.00
2016,04,24,07,30,9.00
2016,04,24,07,31,9.00
2016,04,24,07,32,9.00
2016,04,24,07,33,9.10
2016,04,24,07,34,9.10
2016,04,24,07,35,9.10
2016,04,24,07,36,9.10
2016,04,24,07,37,9.10
2016,04,24,07,38,9.10
2016,04,24,07,39,9.10
2016,04,24,07,40,9.10
2016,04,24,07,41,9.20
2016,04,24,07,42,9.20
2016,04,24,07,43,9.20
2016,04,24,07,44,9.20
2016,04,24,07,45,9.20
2016,04,24,07,46,9.20
2016,04,24,07,47,9.20
2016,04,24,07,48,9.20
2016,04,24,07,49,9.20
2016,04,24,07,50,9.20
2016,04,24,07,51,9.20
2016,04,24,07,52,9.20
2016,04,24,07,53,9.30
2016,04,24,07,54,9.30
2016,04,24,07,55,9.30
2016,04,24,07,56,9.30
2016,04,24,07,57,9.30
2016,04,24,07,58,9.30
2016,04,24,07,59,9.30
2016,04,24,08,00,9.30
2016,04,24,08,01,9.30
2016,04,24,08,02,9.40
2016,04,24,08,03,9.40
2016,04,24,08,04,9.40
2016,04,24,08,05,9.40
2016,04,24,08,06,9.50
2016,04,24,08,07,9.50
2016,04,24,08,08,9.50
2016,04,24,08,09,9.60
2016,04,24,08,10,9.60
2016,04,24,08,11,9.60
2016,04,24,08,12,9.60
2016,04,24,08,13,9.60
2016,04,24,08,14,9.60
2016,04,24,08,15,9.70
2016,04,24,08,16,9.70
2016,04,24,08,17,9.70
2016,04,24,08,18,9.70
2016,04,24,08,19,9.70
2016,04,24,08,20,9.70
2016,04,24,08,21,9.70
2016,04,24,08,22,9.70
2016,04,24,08,23,9.70
2016,04,24,08,24,9.70
2016,04,24,08,25,9.70
2016,04,24,08,26,9.70
2016,04,24,08,27,9.70
2016,04,24,08,28,9.70
2016,04,24,08,29,9.70
2016,04,24,08,30,9.70
2016,04,24,08,31,9.70
2016,04,24,08,32,9.70
2016,04,24,08,33,9.70
2016,04,24,08,34,9.70
2016,04,24,08,35,9.70
2016,04,24,08,36,9.70
2016,04,24,08,37,9.70
2016,04,24,08,38,9.70
2016,04,24,08,39,9.70
2016,04,24,08,40,9.70
2016,04,24,08,41,9.70
2016,04,24,08,42,9.70
2016,04,24,08,43,9.70
2016,04,24,08,44,9.80
2016,04,24,08,45,9.80
2016,04,24,08,46,9.80
2016,04,24,08,47,9.80
2016,04,24,08,48,9.90
2016,04,24,08,49,9.90
2016,04,24,08,50,9.90
2016,04,24,08,51,9.90
2016,04,24,08,52,9.90
2016,04,24,08,53,9.90
2016,04,24,08,54,9.90
2016,04,24,08,55,9.90
2016,04,24,08,56,9.90
2016,04,24,08,57,9.90
2016,04,24,08,58,9.90
2016,04,24,08,59,9.90
2016,04,24,09,00,9.90
2016,04,24,09,01,9.90
2016,04,24,09,02,9.90
2016,04,24,09,03,9.90
2016,04,24,09,04,9.90
2016,04,24,09,05,9.90
2016,04,24,09,06,9.90
2016,04,24,09,07,9.90
2016,04,24,09,08,9.90
2016,04,24,09,09,9.90
2016,04,24,09,10,9.90
2016,04,24,09,11,9.90
2016,04,24,09,12,9.90
2016,04,24,09,13,9.90
2016,04,24,09,14,9.90
2016,04,24,09,15,9.90
2016,04,24,09,16,9.90
2016,04,24,09,17,9.90
2016,04,24,09,18,9.90
2016,04,24,09,19,9.80
2016,04,24,09,20,9.80
2016,04,24,09,21,9.80
2016,04,24,09,22,9.70
2016,04,24,09,23,9.70
2016,04,24,09,24,9.60
2016,04,24,09,25,9.60
2016,04,24,09,26,9.60
2016,04,24,09,27,9.60
2016,04,24,09,28,9.50
2016,04,24,09,29,9.50
2016,04,24,09,30,9.50
2016,04,24,09,31,9.40
2016,04,24,09,32,9.40
2016,04,24,09,33,9.30
2016,04,24,09,34,9.30
2016,04,24,09,35,9.30
2016,04,24,09,36,9.30
2016,04,24,09,37,9.30
2016,04,24,09,38,9.30
2016,04,24,09,39,9.30
2016,04,24,09,40,9.30
2016,04,24,09,41,9.20
2016,04,24,09,42,9.20
2016,04,24,09,43,9.20
2016,04,24,09,44,9.20
2016,04,24,09,45,9.20
2016,04,24,09,46,9.20
2016,04,24,09,47,9.20
2016,04,24,09,48,9.20
2016,04,24,09,49,9.20
2016,04,24,09,50,9.20
2016,04,24,09,51,9.20
2016,04,24,09,52,9.20
2016,04,24,09,53,9.20
2016,04,24,09,54,9.20
2016,04,24,09,55,9.20
2016,04,24,09,56,9.20
2016,04,24,09,57,9.20
2016,04,24,09,58,9.30
2016,04,24,09,59,9.30
2016,04,24,10,00,9.30
2016,04,24,10,01,9.30
2016,04,24,10,02,9.30
2016,04,24,10,03,9.30
2016,04,24,10,04,9.30
2016,04,24,10,05,9.30
2016,04,24,10,06,9.30
2016,04,24,10,07,9.30
2016,04,24,10,08,9.30
2016,04,24,10,09,9.30
2016,04,24,10,10,9.30
2016,04,24,10,11,9.30
2016,04,24,10,12,9.30
2016,04,24,10,13,9.30
2016,04,24,10,14,9.30
2016,04,24,10,15,9.30
2016,04,24,10,16,9.30
2016,04,24,10,17,9.30
2016,04,24,10,18,9.30
2016,04,24,10,19,9.20
2016,04,24,10,20,9.20
2016,04,24,10,21,9.20
2016,04,24,10,22,9.20
2016,04,24,10,23,9.20
2016,04,24,10,24,9.20
2016,04,24,10,25,9.20
2016,04,24,10,26,9.20
2016,04,24,10,27,9.20
2016,04,24,10,28,9.20
2016,04,24,10,29,9.20
2016,04,24,10,30,9.20
2016,04,24,10,31,9.20
2016,04,24,10,32,9.10
2016,04,24,10,33,9.10
2016,04,24,10,34,9.10
2016,04,24,10,35,9.10
2016,04,24,10,36,9.10
2016,04,24,10,37,9.20
2016,04,24,10,38,9.20
2016,04,24,10,39,9.20
2016,04,24,10,40,9.20
2016,04,24,10,41,9.20
2016,04,24,10,42,9.20
2016,04,24,10,43,9.20
2016,04,24,10,44,9.20
2016,04,24,10,45,9.20
2016,04,24,10,46,9.20
2016,04,24,10,47,9.20
2016,04,24,10,48,9.20
2016,04,24,10,49,9.20
2016,04,24,10,50,9.20
2016,04,24,10,51,9.20
2016,04,24,10,52,9.20
2016,04,24,10,53,9.20
2016,04,24,10,54,9.30
2016,04,24,10,55,9.30
2016,04,24,10,56,9.30
2016,04,24,10,57,9.30
2016,04,24,10,58,9.40
2016,04,24,10,59,9.40
2016,04,24,11,00,9.50
2016,04,24,11,01,9.50
2016,04,24,11,02,9.60
2016,04,24,11,03,9.70
2016,04,24,11,04,9.70
2016,04,24,11,05,9.70
2016,04,24,11,06,9.70
2016,04,24,11,07,9.80
2016,04,24,11,08,9.90
2016,04,24,11,09,9.90
2016,04,24,11,10,9.90
2016,04,24,11,11,9.90
2016,04,24,11,12,9.90
2016,04,24,11,13,9.90
2016,04,24,11,14,9.90
2016,04,24,11,15,10.00
2016,04,24,11,16,10.10
2016,04,24,11,17,10.10
2016,04,24,11,18,10.10
2016,04,24,11,19,10.10
2016,04,24,11,20,10.10
2016,04,24,11,21,10.20
2016,04,24,11,22,10.20
2016,04,24,11,23,10.20
2016,04,24,11,24,10.30
2016,04,24,11,25,10.30
2016,04,24,11,26,10.40
2016,04,24,11,27,10.40
2016,04,24,11,28,10.40
2016,04,24,11,29,10.40
2016,04,24,11,30,10.50
2016,04,24,11,31,10.60
2016,04,24,11,32,10.60
2016,04,24,11,33,10.60
2016,04,24,11,34,10.70
2016,04,24,11,35,10.70
2016,04,24,11,36,10.70
2016,04,24,11,37,10.70
2016,04,24,11,38,10.70
2016,04,24,11,39,10.70
2016,04,24,11,40,10.70
2016,04,24,11,41,10.70
2016,04,24,11,42,10.70
2016,04,24,11,43,10.70
2016,04,24,11,44,10.70
2016,04,24,11,45,10.70
2016,04,24,11,46,10.70
2016,04,24,11,47,10.70
2016,04,24,11,48,10.70
2016,04,24,11,49,10.70
2016,04,24,11,50,10.80
2016,04,24,11,51,10.80
2016,04,24,11,52,10.80
2016,04,24,11,53,10.90
2016,04,24,11,54,10.90
2016,04,24,11,55,10.90
2016,04,24,11,56,10.90
2016,04,24,11,57,10.90
2016,04,24,11,58,10.80
2016,04,24,11,59,10.80
2016,04,24,12,00,10.80
2016,04,24,12,01,10.90
2016,04,24,12,02,10.90
2016,04,24,12,03,10.90
2016,04,24,12,04,10.90
2016,04,24,12,05,10.90
2016,04,24,12,06,10.90
2016,04,24,12,07,11.00
2016,04,24,12,08,11.10
2016,04,24,12,09,11.10
2016,04,24,12,10,11.10
2016,04,24,12,11,11.10
2016,04,24,12,12,11.10
2016,04,24,12,13,11.00
2016,04,24,12,14,10.90
2016,04,24,12,15,10.90
2016,04,24,12,16,10.90
2016,04,24,12,17,10.90
2016,04,24,12,18,10.90
2016,04,24,12,19,10.90
2016,04,24,12,20,10.90
2016,04,24,12,21,10.90
2016,04,24,12,22,11.00
2016,04,24,12,23,10.90
2016,04,24,12,24,10.90
2016,04,24,12,25,10.90
2016,04,24,12,26,10.90
2016,04,24,12,27,10.90
2016,04,24,12,28,10.90
2016,04,24,12,29,11.00
2016,04,24,12,30,11.10
2016,04,24,12,31,11.10
2016,04,24,12,32,11.10
2016,04,24,12,33,11.10
2016,04,24,12,34,11.10
2016,04,24,12,35,11.10
2016,04,24,12,36,11.10
2016,04,24,12,37,11.10
2016,04,24,12,38,11.10
2016,04,24,12,39,11.10
2016,04,24,12,40,11.10
2016,04,24,12,41,11.10
2016,04,24,12,42,11.10
2016,04,24,12,43,11.10
2016,04,24,12,44,11.10
2016,04,24,12,45,11.10
2016,04,24,12,46,11.10
2016,04,24,12,47,11.10
2016,04,24,12,48,11.10
2016,04,24,12,49,11.10
2016,04,24,12,50,11.10
2016,04,24,12,51,11.10
2016,04,24,12,52,11.10
2016,04,24,12,53,11.20
2016,04,24,12,54,11.20
2016,04,24,12,55,11.20
2016,04,24,12,56,11.20
2016,04,24,12,57,11.20
2016,04,24,12,58,11.20
2016,04,24,12,59,11.20
2016,04,24,13,00,11.30
2016,04,24,13,01,11.30
2016,04,24,13,02,11.40
2016,04,24,13,03,11.40
2016,04,24,13,04,11.60
2016,04,24,13,05,11.50
2016,04,24,13,06,11.50
2016,04,24,13,07,11.60
2016,04,24,13,08,11.60
2016,04,24,13,09,11.60
2016,04,24,13,10,11.60
2016,04,24,13,11,11.60
2016,04,24,13,12,11.60
2016,04,24,13,13,11.70
2016,04,24,13,14,11.70
2016,04,24,13,15,11.70
2016,04,24,13,16,11.70
2016,04,24,13,17,11.70
2016,04,24,13,18,11.60
2016,04,24,13,19,11.70
2016,04,24,13,20,11.70
2016,04,24,13,21,11.70
2016,04,24,13,22,11.80
2016,04,24,13,23,11.80
2016,04,24,13,24,11.80
2016,04,24,13,25,11.80
2016,04,24,13,26,11.80
2016,04,24,13,27,11.80
2016,04,24,13,28,11.80
2016,04,24,13,29,11.80
2016,04,24,13,30,11.80
2016,04,24,13,31,11.80
2016,04,24,13,32,11.90
2016,04,24,13,33,12.00
2016,04,24,13,34,12.00
2016,04,24,13,35,12.10
2016,04,24,13,36,12.20
2016,04,24,13,37,12.30
2016,04,24,13,38,12.30
2016,04,24,13,39,12.30
2016,04,24,13,40,12.40
2016,04,24,13,41,12.40
2016,04,24,13,42,12.50
2016,04,24,13,43,12.50
2016,04,24,13,44,12.50
2016,04,24,13,45,12.50
2016,04,24,13,46,12.60
2016,04,24,13,47,12.60
2016,04,24,13,48,12.60
2016,04,24,13,49,12.70
2016,04,24,13,50,12.70
2016,04,24,13,51,12.70
2016,04,24,13,52,12.80
2016,04,24,13,53,12.80
2016,04,24,13,54,12.80
2016,04,24,13,55,12.80
2016,04,24,13,56,12.80
2016,04,24,13,57,12.80
2016,04,24,13,58,12.60
2016,04,24,13,59,12.60
2016,04,24,14,00,12.60
2016,04,24,14,01,12.60
2016,04,24,14,02,12.60
2016,04,24,14,03,12.70
2016,04,24,14,04,12.60
2016,04,24,14,05,12.60
2016,04,24,14,06,12.60
2016,04,24,14,07,12.60
2016,04,24,14,08,12.60
2016,04,24,14,09,12.50
2016,04,24,14,10,12.60
2016,04,24,14,11,12.60
2016,04,24,14,12,12.60
2016,04,24,14,13,12.60
2016,04,24,14,14,12.60
2016,04,24,14,15,12.70
2016,04,24,14,16,12.60
2016,04,24,14,17,12.60
2016,04,24,14,18,12.50
2016,04,24,14,19,12.50
2016,04,24,14,20,12.50
2016,04,24,14,21,12.60
2016,04,24,14,22,12.60
2016,04,24,14,23,12.70
2016,04,24,14,24,12.70
2016,04,24,14,25,12.80
2016,04,24,14,26,13.00
2016,04,24,14,27,13.20
2016,04,24,14,28,13.40
2016,04,24,14,29,13.50
2016,04,24,14,30,13.50
2016,04,24,14,31,13.50
2016,04,24,14,32,13.50
2016,04,24,14,33,13.40
2016,04,24,14,34,13.40
2016,04,24,14,35,13.40
2016,04,24,14,36,13.40
2016,04,24,14,37,13.40
2016,04,24,14,38,13.50
2016,04,24,14,39,13.60
2016,04,24,14,40,13.80
2016,04,24,14,41,13.80
2016,04,24,14,42,13.70
2016,04,24,14,43,13.80
2016,04,24,14,44,13.90
2016,04,24,14,45,13.80
2016,04,24,14,46,13.80
2016,04,24,14,47,13.80
2016,04,24,14,48,13.80
2016,04,24,14,49,13.80
2016,04,24,14,50,13.80
2016,04,24,14,51,13.90
2016,04,24,14,52,13.90
2016,04,24,14,53,14.00
2016,04,24,14,54,14.00
2016,04,24,14,55,13.90
2016,04,24,14,56,13.80
2016,04,24,14,57,13.80
2016,04,24,14,58,13.90
2016,04,24,14,59,13.90
2016,04,24,15,00,13.90
2016,04,24,15,01,13.90
2016,04,24,15,02,13.90
2016,04,24,15,03,14.00
2016,04,24,15,04,14.00
2016,04,24,15,05,14.00
2016,04,24,15,06,14.10
2016,04,24,15,07,14.10
2016,04,24,15,08,14.20
2016,04,24,15,09,14.30
2016,04,24,15,10,14.30
2016,04,24,15,11,14.30
2016,04,24,15,12,14.30
2016,04,24,15,13,14.20
2016,04,24,15,14,14.20
2016,04,24,15,15,14.20
2016,04,24,15,16,14.20
2016,04,24,15,17,14.20
2016,04,24,15,18,14.20
2016,04,24,15,19,14.20
2016,04,24,15,20,14.10
2016,04,24,15,21,14.00
2016,04,24,15,22,14.00
2016,04,24,15,23,13.90
2016,04,24,15,24,13.90
2016,04,24,15,25,13.80
2016,04,24,15,26,13.70
2016,04,24,15,27,13.80
2016,04,24,15,28,13.90
2016,04,24,15,29,13.90
2016,04,24,15,30,14.10
2016,04,24,15,31,14.20
2016,04,24,15,32,14.20
2016,04,24,15,33,14.20
2016,04,24,15,34,14.20
2016,04,24,15,35,14.20
2016,04,24,15,36,14.20
2016,04,24,15,37,14.20
2016,04,24,15,38,14.20
2016,04,24,15,39,14.30
2016,04,24,15,40,14.30
2016,04,24,15,41,14.30
2016,04,24,15,42,14.20
2016,04,24,15,43,14.20
2016,04,24,15,44,14.30
2016,04,24,15,45,14.30
2016,04,24,15,46,14.20
2016,04,24,15,47,14.30
2016,04,24,15,48,14.30
2016,04,24,15,49,14.20
2016,04,24,15,50,14.20
2016,04,24,15,51,14.00
2016,04,24,15,52,13.90
2016,04,24,15,53,13.90
2016,04,24,15,54,13.90
2016,04,24,15,55,14.00
2016,04,24,15,56,14.00
2016,04,24,15,57,14.00
2016,04,24,15,58,14.00
2016,04,24,15,59,14.00
2016,04,24,16,00,14.00
2016,04,24,16,01,13.90
2016,04,24,16,02,13.90
2016,04,24,16,03,13.80
2016,04,24,16,04,13.70
2016,04,24,16,05,13.50
2016,04,24,16,06,13.30
2016,04,24,16,07,13.30
2016,04,24,16,08,13.20
2016,04,24,16,09,13.10
2016,04,24,16,10,13.10
2016,04,24,16,11,12.90
2016,04,24,16,12,12.70
2016,04,24,16,13,12.60
2016,04,24,16,14,12.50
2016,04,24,16,15,12.40
2016,04,24,16,16,12.30
2016,04,24,16,17,12.20
2016,04,24,16,18,12.20
2016,04,24,16,19,12.10
2016,04,24,16,20,12.10
2016,04,24,16,21,12.20
2016,04,24,16,22,12.20
2016,04,24,16,23,12.30
2016,04,24,16,24,12.30
2016,04,24,16,25,12.30
2016,04,24,16,26,12.40
2016,04,24,16,27,12.40
2016,04,24,16,28,12.40
2016,04,24,16,29,12.40
2016,04,24,16,30,12.30
2016,04,24,16,31,12.30
2016,04,24,16,32,12.20
2016,04,24,16,33,12.20
2016,04,24,16,34,12.10
2016,04,24,16,35,12.10
2016,04,24,16,36,12.20
2016,04,24,16,37,12.20
2016,04,24,16,38,12.20
2016,04,24,16,39,12.20
2016,04,24,16,40,12.30
2016,04,24,16,41,12.30
2016,04,24,16,42,12.40
2016,04,24,16,43,12.50
2016,04,24,16,44,12.50
2016,04,24,16,45,12.60
2016,04,24,16,46,12.60
2016,04,24,16,47,12.70
2016,04,24,16,48,12.80
2016,04,24,16,49,12.80
2016,04,24,16,50,12.80
2016,04,24,16,51,12.80
2016,04,24,16,52,12.80
2016,04,24,16,53,12.80
2016,04,24,16,54,12.80
2016,04,24,16,55,12.80
2016,04,24,16,56,12.80
2016,04,24,16,57,12.80
2016,04,24,16,58,12.70
2016,04,24,16,59,12.70
2016,04,24,17,00,12.60
2016,04,24,17,01,12.60
2016,04,24,17,02,12.70
2016,04,24,17,03,12.80
2016,04,24,17,04,12.80
2016,04,24,17,05,12.90
2016,04,24,17,06,12.90
2016,04,24,17,07,13.00
2016,04,24,17,08,13.10
2016,04,24,17,09,13.30
2016,04,24,17,10,13.40
2016,04,24,17,11,13.50
2016,04,24,17,12,13.60
2016,04,24,17,13,13.70
2016,04,24,17,14,13.70
2016,04,24,17,15,13.70
2016,04,24,17,16,13.70
2016,04,24,17,17,13.70
2016,04,24,17,18,13.60
2016,04,24,17,19,13.50
2016,04,24,17,20,13.40
2016,04,24,17,21,13.40
2016,04,24,17,22,13.40
2016,04,24,17,23,13.40
2016,04,24,17,24,13.40
2016,04,24,17,25,13.50
2016,04,24,17,26,13.50
2016,04,24,17,27,13.60
2016,04,24,17,28,13.60
2016,04,24,17,29,13.60
2016,04,24,17,30,13.60
2016,04,24,17,31,13.60
2016,04,24,17,32,13.60
2016,04,24,17,33,13.60
2016,04,24,17,34,13.70
2016,04,24,17,35,13.70
2016,04,24,17,36,13.70
2016,04,24,17,37,13.70
2016,04,24,17,38,13.70
2016,04,24,17,39,13.70
2016,04,24,17,40,13.70
2016,04,24,17,41,13.60
2016,04,24,17,42,13.60
2016,04,24,17,43,13.50
2016,04,24,17,44,13.40
2016,04,24,17,45,13.40